Location: Neuvy Saint Sepulchre
(46.5953°N, 1.8122°E)
Time: 06:54:39
(UTC+02:00)

ISS - Pass Details

Date: 02 April 2019
Orbit: 408 x 410 km, 51.6° (Epoch: 20 April)

Event Time Altitude Azimuth Distance (km) Brightness Sun altitude
Rises 20:54:01 0° 291° (WNW) 2,340 2.5 -6.1°
Reaches altitude 10° 20:56:13 10° 300° (WNW) 1,477 0.5 -6.5°
Maximum altitude 20:59:19 36° 9° (N) 670 -2.7 -7.0°
Drops below altitude 10° 21:02:24 10° 78° (ENE) 1,473 -1.5 -7.5°
Enters shadow 21:02:45 - 81° (E) 1,604 -1.4 -7.6°
